Columbus, OH

6:25 AM EDT on April 24, 2017 (GMT -0400)
Port Columbus International

Weather History for KCMH - September, 2013

Change the Weather History Date:

Saturday, September 7, 2013

  Actual Average Record
Temperature  
Mean Temperature 70 °F 70 °F  
Max Temperature 85 °F 80 °F 98 °F (1939)
Min Temperature 54 °F 60 °F 40 °F (1988)
Degree Days  
Heating Degree Days 0 1  
Month to date heating degree days 2 5  
Since 1 July heating degree days 6 5  
Cooling Degree Days 5 6  
Month to date cooling degree days 39 46  
Year to date cooling degree days 1040 935  
Growing Degree Days 19 (Base 50)    
Moisture  
Dew Point 56 °F    
Average Humidity 68    
Maximum Humidity 93    
Minimum Humidity 43    
Precipitation  
Precipitation 0.00 in 0.10 in 1.05 in (1934)
Month to date precipitation T 0.71  
Year to date precipitation 26.64 28.40  
Snow  
Snow 0.00 in 0.00 in 0.00 in ()
Month to date snowfall 0.0 0.0  
Since 1 July snowfall 0.0 0.0  
Since 1 September snowfall 0.0 0.0  
Snow Depth 0.00 in    
Sea Level Pressure  
Sea Level Pressure 30.04 in    
Wind  
Wind Speed 3 mph (SSW)    
Max Wind Speed 12 mph    
Max Gust Speed 16 mph    
Visibility 10 miles    
Events      
T = Trace of Precipitation, MM = Missing Value Source: NWS Daily Summary

Daily Weather History Graph

Daily Weather History Graph

Search for Another Location

Airport or City:

Trip Planner

Search our weather history database for the weather conditions in past years. The results will help you decide how hot, cold, wet, or windy it might be!

Date:

Astronomy

Sep. 07, 2013 Rise Set
Actual Time 7:05 AM EDT 7:53 PM EDT
Civil Twilight 6:37 AM EDT 8:20 PM EDT
Nautical Twilight 6:05 AM EDT 8:52 PM EDT
Astronomical Twilight 5:31 AM EDT 9:26 PM EDT
Moon 9:18 AM EDT (9/7) 8:50 PM EDT (9/7)
Length of Visible Light 13h 42m
Length of Day
12h 47m
Waxing Crescent, 5% of the Moon is Illuminated
Sep 7
Waxing Crescent
Sep 12
First Quarter
Sep 19
Full
Sep 26
Last Quarter
Oct 4
New

Hourly Weather History & Observations

Time (EDT) Temp. Heat Index Dew Point Humidity Pressure Visibility Wind Dir Wind Speed Gust Speed Precip Events Conditions
12:51 AM 60.1 °F - 51.1 °F 72% 30.11 in 10.0 mi Calm Calm - N/A   Clear
1:51 AM 57.9 °F - 50.0 °F 75% 30.11 in 10.0 mi Calm Calm - N/A   Clear
2:51 AM 57.0 °F - 52.0 °F 83% 30.10 in 10.0 mi Calm Calm - N/A   Clear
3:51 AM 55.0 °F - 50.0 °F 83% 30.10 in 10.0 mi Calm Calm - N/A   Clear
4:51 AM 55.0 °F - 51.1 °F 86% 30.10 in 10.0 mi Calm Calm - N/A   Clear
5:51 AM 54.0 °F - 52.0 °F 93% 30.10 in 10.0 mi Calm Calm - N/A   Clear
6:51 AM 55.0 °F - 50.0 °F 83% 30.10 in 10.0 mi Calm Calm - N/A   Partly Cloudy
7:51 AM 55.0 °F - 50.0 °F 83% 30.10 in 10.0 mi Calm Calm - N/A   Scattered Clouds
8:51 AM 60.1 °F - 51.1 °F 72% 30.09 in 10.0 mi Calm Calm - N/A   Scattered Clouds
9:51 AM 66.0 °F - 51.1 °F 59% 30.09 in 10.0 mi South 3.5 mph - N/A   Scattered Clouds
10:51 AM 71.1 °F - 51.1 °F 49% 30.08 in 10.0 mi SSW 6.9 mph - N/A   Scattered Clouds
11:51 AM 73.9 °F - 52.0 °F 46% 30.08 in 10.0 mi SW 4.6 mph - N/A   Scattered Clouds
12:51 PM 78.1 °F - 55.0 °F 45% 30.06 in 10.0 mi Calm Calm - N/A   Scattered Clouds
1:51 PM 82.0 °F 82.0 °F 57.9 °F 44% 30.03 in 10.0 mi South 6.9 mph - N/A   Mostly Cloudy
2:51 PM 82.0 °F 82.1 °F 59.0 °F 45% 30.01 in 10.0 mi WSW 6.9 mph - N/A   Mostly Cloudy
3:51 PM 82.9 °F 83.2 °F 60.1 °F 46% 29.99 in 10.0 mi Calm Calm - N/A   Mostly Cloudy
4:51 PM 84.0 °F 84.5 °F 62.1 °F 47% 29.96 in 10.0 mi SW 8.1 mph - N/A   Overcast
5:51 PM 84.0 °F 84.4 °F 61.0 °F 46% 29.96 in 10.0 mi SW 6.9 mph - N/A   Mostly Cloudy
6:51 PM 84.0 °F 84.4 °F 61.0 °F 46% 29.94 in 10.0 mi SW 8.1 mph - N/A   Scattered Clouds
7:51 PM 82.0 °F 83.0 °F 62.1 °F 51% 29.95 in 10.0 mi SSW 6.9 mph - N/A   Overcast
8:51 PM 78.1 °F - 63.0 °F 60% 29.96 in 10.0 mi South 5.8 mph - N/A   Overcast
9:51 PM 75.9 °F - 64.0 °F 67% 29.95 in 10.0 mi South 5.8 mph - N/A   Mostly Cloudy
10:51 PM 73.9 °F - 64.0 °F 71% 29.95 in 10.0 mi Calm Calm - N/A   Overcast
11:51 PM 73.9 °F - 64.0 °F 71% 29.95 in 10.0 mi South 3.5 mph - N/A   Overcast